Saint Ignace, MI

3:56 AM EST on December 04, 2016 (GMT -0500)
Mackinac Island

Weather History for KMCD - November, 2014

Change the Weather History Date:

Thursday, November 27, 2014

  Actual Average Record
Temperature  
Mean Temperature 21 °F -  
Max Temperature 27 °F 36 °F 56 °F (1990)
Min Temperature 15 °F 28 °F 12 °F (1985)
Degree Days  
Heating Degree Days 44    
Moisture  
Dew Point 15 °F    
Average Humidity 77    
Maximum Humidity 96    
Minimum Humidity 61    
Precipitation  
Precipitation 0.01 in - - ()
Sea Level Pressure  
Sea Level Pressure 30.19 in    
Wind  
Wind Speed 10 mph (NW)    
Max Wind Speed 20 mph    
Max Gust Speed 29 mph    
Visibility 9 miles    
Events Snow    
Averages and records for this station are not official NWS values.
T = Trace of Precipitation, MM = Missing Value Source: NWS Daily Summary

Daily Weather History Graph

Daily Weather History Graph

Search for Another Location

Airport or City:

Trip Planner

Search our weather history database for the weather conditions in past years. The results will help you decide how hot, cold, wet, or windy it might be!

Date:

Astronomy

Nov. 27, 2014 Rise Set
Actual Time 7:54 AM EST 4:57 PM EST
Civil Twilight 7:21 AM EST 5:30 PM EST
Nautical Twilight 6:44 AM EST 6:07 PM EST
Astronomical Twilight 6:08 AM EST 6:43 PM EST
Moon 12:01 PM EST (11/27) 10:45 PM EST (11/27)
Length of Visible Light 10h 09m
Length of Day
9h 02m
Waxing Crescent, 31% of the Moon is Illuminated
Nov 27
Waxing Crescent
Nov 29
First Quarter
Dec 6
Full
Dec 14
Last Quarter
Dec 21
New

Hourly Weather History & Observations

Time (EST) Temp. Windchill Dew Point Humidity Pressure Visibility Wind Dir Wind Speed Gust Speed Precip Events Conditions
12:16 AM 26.4 °F 20.9 °F 23.9 °F 90% 30.10 in 10.0 mi NE 4.6 mph - N/A   Scattered Clouds
12:36 AM 26.1 °F 20.5 °F 24.1 °F 92% 30.10 in 10.0 mi NE 4.6 mph - N/A   Mostly Cloudy
12:56 AM 26.6 °F 21.2 °F 24.1 °F 90% 30.11 in 7.0 mi NNE 4.6 mph - N/A   Overcast
1:16 AM 26.8 °F 21.4 °F 25.5 °F 95% 30.11 in 7.0 mi NNE 4.6 mph - N/A Snow Light Snow
1:36 AM 27.3 °F 20.9 °F 26.2 °F 96% 30.10 in 10.0 mi North 5.8 mph - N/A Snow Light Snow
1:56 AM 27.9 °F 22.6 °F 25.3 °F 90% 30.11 in 10.0 mi NNW 4.6 mph - N/A   Overcast
2:17 AM 27.7 °F 22.4 °F 24.4 °F 88% 30.11 in 10.0 mi North 4.6 mph - N/A   Overcast
2:36 AM 27.9 °F 21.5 °F 23.9 °F 85% 30.11 in 10.0 mi North 5.8 mph - N/A   Overcast
2:56 AM 27.5 °F 18.6 °F 24.3 °F 88% 30.11 in 7.0 mi NNW 9.2 mph - N/A Snow Light Snow
3:17 AM 27.3 °F 19.9 °F 24.3 °F 88% 30.11 in 4.0 mi NNW 6.9 mph - N/A Snow Light Snow
3:36 AM 27.0 °F 19.5 °F 24.4 °F 90% 30.11 in 2.5 mi NNW 6.9 mph - N/A Snow Light Snow
3:56 AM 26.6 °F 19.1 °F 25.2 °F 94% 30.11 in 1.5 mi NNW 6.9 mph - 0.01 in Snow Light Snow
4:16 AM 26.4 °F 18.9 °F 25.2 °F 95% 30.11 in 2.5 mi NW 6.9 mph - N/A Snow Light Snow
4:36 AM 26.2 °F 17.1 °F 24.8 °F 94% 30.11 in 4.0 mi NNW 9.2 mph - N/A Snow Light Snow
4:56 AM 25.7 °F 15.7 °F 24.3 °F 94% 30.12 in 5.0 mi NW 10.4 mph 17.3 mph N/A Snow Light Snow
5:16 AM 25.3 °F 13.6 °F 22.8 °F 90% 30.13 in 4.0 mi NNW 13.8 mph 19.6 mph N/A Snow Light Snow
5:36 AM 25.0 °F 12.2 °F 21.4 °F 86% 30.13 in 10.0 mi NNW 16.1 mph 23.0 mph N/A   Overcast
5:56 AM 24.8 °F 14.0 °F 20.5 °F 84% 30.13 in 10.0 mi NNW 11.5 mph 20.7 mph N/A   Overcast
6:16 AM 24.3 °F 11.2 °F 20.3 °F 85% 30.14 in 10.0 mi NNW 16.1 mph 20.7 mph N/A   Overcast
6:37 AM 23.9 °F 13.5 °F 19.0 °F 82% 30.14 in 10.0 mi NW 10.4 mph 21.9 mph N/A   Overcast
6:56 AM 23.0 °F 8.3 °F 17.4 °F 79% 30.15 in 10.0 mi NW 19.6 mph 27.6 mph N/A   Overcast
7:16 AM 22.1 °F 8.9 °F 16.7 °F 80% 30.15 in 10.0 mi NW 15.0 mph 25.3 mph N/A   Overcast
7:37 AM 21.7 °F 10.8 °F 16.2 °F 79% 30.15 in 10.0 mi NNW 10.4 mph 25.3 mph N/A   Overcast
7:56 AM 21.6 °F 8.8 °F 15.6 °F 78% 30.16 in 10.0 mi NW 13.8 mph 26.5 mph N/A   Overcast
8:16 AM 21.2 °F 8.3 °F 15.1 °F 77% 30.16 in 10.0 mi NNW 13.8 mph 25.3 mph N/A   Overcast
8:37 AM 21.0 °F 7.1 °F 14.4 °F 75% 30.17 in 10.0 mi NW 16.1 mph 21.9 mph N/A   Overcast
8:56 AM 20.7 °F 9.5 °F 14.0 °F 75% 30.17 in 10.0 mi NW 10.4 mph 20.7 mph N/A   Overcast
9:16 AM 20.5 °F 8.0 °F 13.6 °F 75% 30.18 in 10.0 mi NW 12.7 mph 21.9 mph N/A   Overcast
9:37 AM 20.7 °F 8.2 °F 13.6 °F 74% 30.18 in 10.0 mi NW 12.7 mph 20.7 mph N/A   Overcast
9:56 AM 20.8 °F 9.0 °F 12.9 °F 71% 30.19 in 10.0 mi WNW 11.5 mph 21.9 mph N/A   Overcast
10:17 AM 21.2 °F 10.1 °F 13.1 °F 71% 30.20 in 10.0 mi NW 10.4 mph 19.6 mph N/A   Overcast
10:36 AM 21.2 °F 10.1 °F 12.7 °F 70% 30.20 in 10.0 mi NW 10.4 mph 20.7 mph N/A   Overcast
10:56 AM 20.7 °F 9.5 °F 12.7 °F 71% 30.20 in 10.0 mi NW 10.4 mph 19.6 mph N/A   Overcast
11:17 AM 20.3 °F 7.7 °F 12.4 °F 71% 30.21 in 10.0 mi WNW 12.7 mph 19.6 mph N/A   Overcast
11:36 AM 21.2 °F 11.7 °F 12.4 °F 69% 30.20 in 10.0 mi NW 8.1 mph 18.4 mph N/A   Scattered Clouds
11:56 AM 22.1 °F 9.5 °F 12.2 °F 66% 30.19 in 10.0 mi NW 13.8 mph 21.9 mph N/A   Mostly Cloudy
12:17 PM 20.7 °F 8.2 °F 11.3 °F 67% 30.19 in 10.0 mi NW 12.7 mph 21.9 mph N/A   Mostly Cloudy
12:36 PM 22.8 °F 10.4 °F 12.6 °F 65% 30.19 in 10.0 mi NW 13.8 mph 26.5 mph N/A   Overcast
12:56 PM 20.7 °F 8.2 °F 10.0 °F 64% 30.20 in 10.0 mi WNW 12.7 mph 19.6 mph N/A Snow Light Snow
1:16 PM 20.8 °F 7.9 °F 11.1 °F 66% 30.19 in 10.0 mi NW 13.8 mph 18.4 mph N/A   Overcast
1:36 PM 20.5 °F 10.0 °F 10.0 °F 64% 30.19 in 7.0 mi NW 9.2 mph 21.9 mph N/A   Overcast
1:57 PM 20.1 °F 7.5 °F 9.3 °F 63% 30.20 in 10.0 mi WNW 12.7 mph 20.7 mph N/A   Mostly Cloudy
2:16 PM 21.9 °F 9.2 °F 10.4 °F 61% 30.19 in 10.0 mi WNW 13.8 mph 21.9 mph N/A   Mostly Cloudy
2:36 PM 20.1 °F 6.9 °F 11.1 °F 68% 30.19 in 7.0 mi NW 13.8 mph 21.9 mph N/A Snow Light Snow
2:57 PM 19.9 °F 7.3 °F 9.0 °F 62% 30.20 in 10.0 mi NW 12.7 mph 21.9 mph N/A   Scattered Clouds
3:16 PM 19.9 °F 7.9 °F 9.3 °F 63% 30.20 in 10.0 mi WNW 11.5 mph 20.7 mph N/A   Mostly Cloudy
3:37 PM 19.9 °F 7.9 °F 8.8 °F 62% 30.21 in 10.0 mi NW 11.5 mph 20.7 mph N/A   Scattered Clouds
3:56 PM 19.8 °F 6.5 °F 8.2 °F 61% 30.21 in 10.0 mi NW 13.8 mph 28.8 mph N/A   Mostly Cloudy
4:16 PM 19.4 °F 5.5 °F 9.5 °F 65% 30.22 in 10.0 mi WNW 15.0 mph 21.9 mph N/A   Overcast
4:37 PM 18.5 °F 6.8 °F 9.3 °F 67% 30.23 in 10.0 mi NW 10.4 mph 21.9 mph N/A   Mostly Cloudy
4:56 PM 17.6 °F 3.2 °F 8.1 °F 66% 30.23 in 10.0 mi WNW 15.0 mph 23.0 mph N/A   Mostly Cloudy
5:16 PM 17.2 °F 6.0 °F 8.1 °F 67% 30.24 in 10.0 mi NW 9.2 mph 23.0 mph N/A   Clear
5:37 PM 16.9 °F 2.8 °F 9.0 °F 71% 30.25 in 10.0 mi NW 13.8 mph 23.0 mph N/A   Scattered Clouds
5:56 PM 16.7 °F 2.0 °F 9.1 °F 72% 30.25 in 10.0 mi NW 15.0 mph 23.0 mph N/A   Clear
6:16 PM 16.7 °F 4.5 °F 10.6 °F 77% 30.25 in 10.0 mi WNW 10.4 mph 19.6 mph N/A   Scattered Clouds
6:37 PM 16.3 °F 3.4 °F 11.1 °F 80% 30.25 in 10.0 mi NW 11.5 mph 20.7 mph N/A   Mostly Cloudy
6:56 PM 16.2 °F 4.7 °F 11.1 °F 81% 30.25 in 10.0 mi NW 9.2 mph 18.4 mph N/A   Mostly Cloudy
7:17 PM 15.8 °F 2.1 °F 10.6 °F 80% 30.25 in 10.0 mi WNW 12.7 mph 20.7 mph N/A   Scattered Clouds
7:37 PM 15.8 °F 2.1 °F 10.6 °F 80% 30.25 in 10.0 mi WNW 12.7 mph 20.7 mph N/A   Mostly Cloudy
7:56 PM 15.6 °F 2.5 °F 10.4 °F 80% 30.25 in 10.0 mi NW 11.5 mph 20.7 mph N/A   Scattered Clouds
8:17 PM 15.6 °F 1.8 °F 10.2 °F 79% 30.25 in 10.0 mi WNW 12.7 mph 21.9 mph N/A   Mostly Cloudy
8:37 PM 15.8 °F 1.4 °F 10.2 °F 79% 30.26 in 10.0 mi WNW 13.8 mph 17.3 mph N/A   Overcast
8:56 PM 15.6 °F 1.8 °F 10.4 °F 80% 30.26 in 10.0 mi WNW 12.7 mph 18.4 mph N/A   Overcast
9:17 PM 15.8 °F 3.4 °F 10.2 °F 79% 30.26 in 10.0 mi WNW 10.4 mph 17.3 mph N/A   Mostly Cloudy
9:36 PM 15.8 °F 3.4 °F 10.0 °F 78% 30.26 in 10.0 mi WNW 10.4 mph 18.4 mph N/A   Scattered Clouds
9:57 PM 15.6 °F 1.8 °F 10.2 °F 79% 30.27 in 10.0 mi WNW 12.7 mph 18.4 mph N/A   Scattered Clouds
10:17 PM 15.6 °F 3.2 °F 10.4 °F 80% 30.27 in 10.0 mi WNW 10.4 mph - N/A   Clear
10:36 PM 15.8 °F 0.3 °F 11.1 °F 82% 30.26 in 10.0 mi WNW 16.1 mph 20.7 mph N/A   Clear
10:56 PM 16.2 °F 2.5 °F 10.8 °F 79% 30.26 in 10.0 mi WNW 12.7 mph 19.6 mph N/A   Clear
11:16 PM 16.3 °F 2.7 °F 11.1 °F 80% 30.26 in 10.0 mi WNW 12.7 mph 18.4 mph N/A   Clear
11:36 PM 16.7 °F 2.6 °F 10.8 °F 77% 30.26 in 10.0 mi WNW 13.8 mph 18.4 mph N/A   Mostly Cloudy
11:56 PM 16.3 °F 4.1 °F 10.4 °F 77% 30.24 in 10.0 mi WNW 10.4 mph 17.3 mph N/A   Scattered Clouds